Location: Unspecified
(48.2082°N, 0.0000°E)
Time: 05:55:25
(UTC+00:00)

A-11 Canister half - Pass Details

Date: 16 August 2020
Orbit: 1514 x 1686 km, 47.2° (Epoch: 21 September)

Event Time Altitude Azimuth Distance (km) Brightness Sun altitude
Rises 22:45:17 0° 291° (WNW) 4,844 12.2 -26.0°
Reaches altitude 10° 22:48:45 10° 282° (WNW) 3,878 11.5 -26.2°
Maximum altitude 22:57:15 34° 223° (SW) 2,508 9.8 -26.7°
Enters shadow 22:58:51 32° 206° (SSW) 2,576 9.8 -26.8°
